Location: Plainartige
(45.6866°N, 1.7993°E)
Time: 13:27:10
(UTC+00:00)

RS-15 - Pass Details

Date: 29 June 2022
Orbit: 1881 x 2163 km, 64.8° (Epoch: 13 August)

Event Time Altitude Azimuth Distance (km) Brightness Sun altitude
Rises 00:55:24 0° 323° (NW) 5,700 11.0 -19.8°
Reaches altitude 10° 00:59:01 10° 319° (NW) 4,688 10.4 -19.6°
Maximum altitude 01:10:35 51° 249° (WSW) 2,555 8.3 -19.0°
Enters shadow 01:18:11 23° 187° (S) 3,597 8.8 -18.6°
